EW9798 Weather Reports


Display with metric or nautical units.
time (UTC)temp
F
wind
direction
speed
MPH
gust
MPH
rain 1hr
in
rain 24hr
in
rain mn
in
humidity
%
barometer
mb
20260508030033 63 228 1.0 4.0 0.00 0.00 0.00 32 1016.6
20260508024648 64 263 1.0 5.0 0.00 0.00 0.00 29 1016.6
20260508023029 66 270 3.0 8.0 0.00 0.00 0.00 28 1016.5
20260508020029 68 294 5.0 12.0 0.00 0.00 0.00 25 1016.4
20260508014605 69 306 7.0 15.0 0.00 0.00 0.00 24 1016.3
20260508013048 71 304 7.0 17.0 0.00 0.00 0.00 23 1016.3
20260508011530 72 307 6.0 16.0 0.00 0.00 0.00 24 1016.4
20260508010031 70 314 6.0 15.0 0.00 0.00 0.00 23 1016.4
20260508004528 70 321 6.0 17.0 0.00 0.00 0.00 23 1016.4
20260508003029 70 323 7.0 15.0 0.00 0.00 0.00 22 1016.4
20260508000033 70 333 8.0 17.0 0.00 0.00 0.00 23 1016.3
20260507233032 70 316 9.0 16.0 0.00 0.00 0.00 27 1016.4
20260507231607 70 315 9.0 19.0 0.00 0.00 0.00 28 1016.6
20260507224539 70 307 10.0 19.0 0.00 0.00 0.00 30 1016.6
20260507223057 71 306 9.0 19.0 0.00 0.00 0.00 31 1016.8
20260507221532 71 314 8.0 19.0 0.00 0.00 0.00 32 1016.9
20260507220033 71 316 7.0 15.0 0.00 0.00 0.00 35 1017.1
20260507214530 70 334 7.0 14.0 0.00 0.00 0.00 37 1017.3
20260507213030 70 349 6.0 14.0 0.00 0.00 0.00 40 1017.5
20260507211540 70 344 7.0 16.0 0.00 0.00 0.00 41 1017.5
20260507210030 70 339 6.0 12.0 0.00 0.00 0.00 41 1017.7
20260507204530 70 351 6.0 13.0 0.00 0.00 0.00 41 1017.8
20260507203032 69 1 6.0 10.0 0.00 0.00 0.00 41 1018.0
20260507201538 69 338 6.0 11.0 0.00 0.00 0.00 42 1018.1
20260507200031 68 332 7.0 14.0 0.00 0.00 0.00 44 1018.3
20260507194529 67 343 6.0 12.0 0.00 0.00 0.00 46 1018.3
20260507193107 66 350 7.0 12.0 0.00 0.00 0.00 48 1018.5
20260507191530 65 345 6.0 13.0 0.00 0.00 0.00 51 1018.6
20260507190033 64 330 8.0 18.0 0.00 0.00 0.00 52 1018.8
20260507183041 63 351 7.0 15.0 0.00 0.00 0.00 57 1019.2
20260507180107 61 356 5.0 11.0 0.00 0.00 0.00 59 1019.4
20260507173029 59 359 5.0 10.0 0.00 0.00 0.00 64 1019.9
20260507171533 59 349 5.0 11.0 0.00 0.00 0.00 65 1020.1
20260507170031 58 355 5.0 9.0 0.00 0.00 0.00 67 1020.1
20260507164532 57 343 6.0 11.0 0.00 0.00 0.00 69 1020.2
20260507163037 57 11 6.0 12.0 0.00 0.00 0.00 70 1020.3
20260507161532 56 355 4.0 11.0 0.00 0.00 0.00 72 1020.3
20260507160107 55 337 5.0 13.0 0.00 0.00 0.00 73 1020.4
20260507151648 54 327 4.0 8.0 0.00 0.00 0.00 77 1020.6
20260507150038 53 336 5.0 14.0 0.00 0.00 0.00 79 1020.7
20260507144607 52 335 5.0 12.0 0.00 0.00 0.00 81 1020.6
20260507143106 51 357 4.0 11.0 0.00 0.00 0.00 83 1020.6
20260507141530 50 17 3.0 9.0 0.00 0.00 0.00 84 1020.6
20260507140032 50 36 5.0 11.0 0.00 0.00 0.00 85 1020.3
20260507134605 50 51 5.0 10.0 0.00 0.00 0.00 87 1020.2
20260507133028 49 60 5.0 9.0 0.00 0.00 0.00 88 1020.1
20260507131531 48 75 5.0 9.0 0.00 0.00 0.00 87 1020.0
20260507130031 49 98 3.0 7.0 0.00 0.00 0.00 86 1019.9
20260507124529 50 86 4.0 6.0 0.00 0.00 0.00 85 1019.9
20260507123107 51 44 4.0 7.0 0.00 0.00 0.00 85 1020.0
20260507120146 50 57 5.0 9.0 0.00 0.00 0.00 85 1019.9
20260507114536 51 86 4.0 8.0 0.00 0.00 0.00 84 1019.8
20260507113108 51 58 3.0 7.0 0.00 0.00 0.00 84 1019.7
20260507111530 52 25 2.0 6.0 0.00 0.00 0.00 85 1019.6
20260507110029 50 43 4.0 8.0 0.00 0.00 0.00 88 1019.5
20260507104530 49 51 3.0 7.0 0.00 0.00 0.00 87 1019.4
20260507103107 49 94 2.0 6.0 0.00 0.00 0.00 84 1019.5
20260507101532 51 111 2.0 5.0 0.00 0.00 0.00 83 1019.6
20260507100037 52 265 0.0 5.0 0.00 0.00 0.00 83 1019.6
20260507094531 52 268 0.0 7.0 0.00 0.00 0.00 82 1019.6
20260507093144 54 304 0.0 3.0 0.00 0.00 0.00 79 1019.7
20260507091606 54 275 2.0 6.0 0.00 0.00 0.00 78 1019.6
20260507084529 58 282 6.0 13.0 0.00 0.00 0.00 71 1019.7
20260507083029 58 248 8.0 17.0 0.00 0.00 0.00 73 1019.5
20260507081531 56 254 8.0 19.0 0.00 0.00 0.00 81 1019.6
20260507080104 53 278 3.0 11.0 0.00 0.00 0.00 87 1019.7
20260507074532 51 254 3.0 8.0 0.00 0.00 0.00 89 1019.8
20260507073106 51 219 0.0 2.0 0.00 0.00 0.00 89 1019.9
20260507071531 51 164 0.0 3.0 0.00 0.00 0.00 88 1020.0
20260507070029 51 135 0.0 3.0 0.00 0.00 0.00 87 1020.0
20260507064532 52 136 2.0 4.0 0.00 0.00 0.00 86 1020.0
20260507063030 53 220 0.0 3.0 0.00 0.00 0.00 85 1020.0
20260507061646 54 184 1.0 4.0 0.00 0.00 0.00 83 1020.0
20260507060031 56 207 0.0 4.0 0.00 0.00 0.00 81 1020.1
20260507054530 57 277 1.0 5.0 0.00 0.00 0.00 80 1020.3
20260507053036 57 281 1.0 9.0 0.00 0.00 0.00 79 1020.4
20260507051529 58 295 0.0 6.0 0.00 0.00 0.00 77 1020.5
20260507050031 59 319 1.0 7.0 0.00 0.00 0.00 75 1020.5
20260507044529 59 329 4.0 11.0 0.00 0.00 0.00 73 1020.4
20260507043030 60 330 3.0 8.0 0.00 0.00 0.00 67 1020.3
20260507041529 62 312 4.0 9.0 0.00 0.00 0.00 61 1020.0
20260507040035 63 248 6.0 14.0 0.00 0.00 0.00 59 1019.6
20260507034532 64 230 9.0 19.0 0.00 0.00 0.00 58 1019.5
20260507033029 64 228 9.0 19.0 0.00 0.00 0.00 57 1019.4
20260507031530 65 217 8.0 16.0 0.00 0.00 0.00 56 1019.3